[[{"header":{"parameterUnit":"m.s-1","parameterCategory":1,"la1":30.2991,"la2":30.254,"lo1":-89.0895,"lo2":-89.0444,"dy":0.0017,"dx":0.0017,"nx":28,"ny":28,"refTime":"2025-08-02T09:00:00:Z","depth":0,"parameterNumber":2,"parameterNumberName":"U-component_of_WINDS"},"data":[0,0,0,0,0,0,0,0,0,0,0,0,0,0,0,0,0,0,0,0,0,0,0,0,0,0,0,0,0,0,0,0,0,0,0,0,0,0,0,0,0,0,0,0,0,0,0,0,0,0,0,0,0,0,0,0,0,0,0.0796,0.0795,0,0.0724,0.0723,0.0722,0.0743,0.0745,0.0746,0.0748,0.0671,0.0668,0.0665,0,0,0,0,0,0,0,0,0,0,0,0,0,0.095,0.0947,0.0796,0.0795,0.0794,0.0724,0.0723,0.0722,0.0743,0.0745,0.0747,0.0748,0.0672,0.0668,0.0664,0,0,0,0,0,0,0,0,0,0,0,0,0,0.0881,0.0946,0.0796,0.0796,0.0796,0.0724,0.0723,0.0722,0.0743,0.0745,0.0747,0.0749,0.0674,0.0669,0.0664,0.0587,0,0,0.0648,0.0646,0,0,0,0,0,0,0,0,0.0884,0.0875,0.0797,0.0796,0.0795,0.0745,0.0749,0.0676,0.0742,0.0763,0.0748,0.075,0.0694,0.0687,0.0669,0.0583,0.058,0.0647,0.0644,0.0642,0.0641,0,0,0,0,0,0,0,0.0889,0.0878,0.0767,0.0796,0.0795,0.0799,0.0792,0.0735,0.0716,0.0761,0.0762,0.0754,0.0694,0.0674,0.0667,0.0579,0.0648,0.0643,0.064,0.0638,0.0426,0.0424,0,0,0,0,0,0,0.0895,0.0882,0.077,0.0765,0.0846,0.0795,0.0786,0.0759,0.0717,0.0713,0.0752,0.0755,0.0681,0.0673,0.0664,0.0571,0.0642,0.0637,0.0634,0.0429,0.0425,0.0423,0,0,0,0,0,0,0.0898,0.0885,0.0772,0.0824,0.081,0.079,0.0758,0.0756,0.0736,0.071,0.0707,0.0735,0.0683,0.0672,0.0606,0.0568,0.0635,0.063,0.0432,0.0428,0.0424,0.0383,0,0,0,0,0,0,0.0903,0.0886,0.0857,0.0823,0.0807,0.0716,0.0756,0.0753,0.0727,0.0731,0.0693,0.0689,0.0684,0.0614,0.0601,0.0562,0.0626,0.0435,0.043,0.0425,0.0388,0.0378,0.037,0,0,0,0,0,0.0908,0.0848,0.0855,0.0841,0.0771,0.0713,0.0704,0.07,0.0724,0.0694,0.0678,0.069,0.0575,0.0607,0.0592,0.0552,0.0437,0.0431,0.0426,0.0391,0.038,0.037,0,0,0,0,0,0,0.0876,0.0843,0.0851,0.0778,0.0749,0.0717,0.0679,0.0688,0.065,0.0654,0.065,0.0641,0.0574,0.0557,0.0592,0.0475,0.0509,0.0501,0.0488,0.0477,0.0469,0.0473,0.0622,0,0,0,0,0,0.0861,0.0818,0.0792,0.073,0.0715,0.07,0.0675,0.0674,0.0642,0.063,0.0608,0.0577,0.0534,0.0505,0.0464,0.0386,0.0377,0.0351,0.0343,0.0336,0.0327,0.0284,0.0272,0.0404,0.0404,0.0404,0,0,0.0829,0.0805,0.0778,0.0723,0.07,0.0654,0.0689,0.064,0.0606,0.0622,0.0558,0.0542,0.0506,0.0434,0.0401,0.0418,0.0289,0.0328,0.0323,0.0318,0.0277,0.0264,0.0253,0.04,0.0401,0.0401,0,0,0.0746,0.0725,0.0671,0.0647,0.0612,0.0603,0.059,0.0557,0.0547,0.0483,0.0495,0.0454,0.038,0.0354,0.0331,0.0239,0.0249,0.0226,0.018,0.0138,0.0128,0.0118,0.0084,0.0072,0.0219,0.0218,0.0218,0,0.071,0.0643,0.0641,0.0591,0.0566,0.058,0.0525,0.0502,0.0454,0.0436,0.0456,0.0363,0.034,0.0262,0.0239,0.0221,0.0205,0.0229,0.013,0.012,0.0111,0.0079,0.0066,0.0216,0.0216,0.0216,0.0217,0,0.0599,0.0553,0.0513,0.0468,0.0439,0.0386,0.0376,0.0346,0.0349,0.0337,0.0272,0.0245,0.0198,0.018,0.0182,0.0102,0.0113,0.0131,0.0165,0.0096,0.0065,0.0053,0.0212,0.0213,0.0214,0.0214,0,0,0.0493,0.0449,0.0434,0.0413,0.0376,0.034,0.0288,0.0243,0.0217,0.0185,0.014,0.0077,0.0094,0.0068,0.0067,0.003,-0.0042,0.0053,0.0052,0.0034,-0.0133,-0.0148,-0.0163,-0.0035,-0.0037,-0.0039,-0.0131,0,0.0406,0.0315,0.0312,0.0229,0.0185,0.0198,0.0153,0.0125,0.0113,0.0074,0.0061,0.0015,0.0042,0.0026,-0.0009,-0.0026,-0.0076,-0.0019,-0.0078,-0.008,-0.0072,-0.0178,-0.0194,-0.028,-0.0143,-0.0145,-0.0146,0,0.0292,0.0256,0.0168,0.0137,0.0119,0.0078,0.0037,-0.0,-0.0032,-0.0038,-0.0067,-0.0062,-0.0116,-0.0078,-0.0153,-0.0114,-0.0138,-0.015,-0.0153,-0.0161,-0.0119,-0.0191,-0.0307,-0.0321,-0.0165,-0.0163,-0.0162,0,0.0221,0.0151,0.0089,0.0072,0.0035,0.0005,-0.0012,-0.0041,-0.0068,-0.0104,-0.0121,-0.0163,-0.0187,-0.022,-0.0227,-0.0199,-0.0303,-0.0265,-0.0311,-0.0311,-0.0335,-0.0334,-0.0459,-0.0347,-0.0347,-0.0347,-0.0346,0,0.0122,0.0068,0.0057,0.0019,-0.0042,-0.0044,-0.0105,-0.012,-0.0146,-0.0187,-0.0178,-0.0217,-0.0223,-0.0264,-0.027,-0.0332,-0.0342,-0.035,-0.0351,-0.0352,-0.0351,-0.0369,-0.0364,-0.035,-0.0349,-0.0349,-0.0348,0,0.0032,0.0023,-0.0044,-0.0073,-0.0082,-0.0126,-0.0151,-0.0188,-0.0198,-0.0251,-0.0263,-0.028,-0.0328,-0.0337,-0.0394,-0.0398,-0.0472,-0.0466,-0.0462,-0.0462,-0.0507,-0.0503,-0.065,-0.067,-0.0543,-0.0544,-0.0545,0,-0.0031,-0.0073,-0.0106,-0.0133,-0.0151,-0.0194,-0.0221,-0.0225,-0.0254,-0.0292,-0.0325,-0.0371,-0.0409,-0.0485,-0.0503,-0.0546,-0.0543,-0.0591,-0.055,-0.0549,-0.0546,-0.0544,-0.0549,-0.06,-0.0601,-0.0602,-0.0603,0,-0.0143,-0.0145,-0.0184,-0.0225,-0.0257,-0.029,-0.032,-0.0343,-0.035,-0.0383,-0.0431,-0.046,-0.0518,-0.0564,-0.0607,-0.0625,-0.0617,-0.0616,-0.0629,-0.0631,-0.0628,-0.0632,-0.0485,-0.0613,-0.0612,-0.0611,-0.0611,-0.0611,-0.0223,-0.026,-0.0289,-0.0333,-0.0356,-0.0385,-0.0421,-0.0435,-0.0475,-0.0522,-0.0521,-0.0574,-0.0605,-0.0662,-0.0682,-0.0724,-0.0709,-0.0728,-0.0733,-0.0738,-0.0743,-0.0619,-0.0732,-0.0732,-0.0731,-0.0731,-0.0731,0,-0.0336,-0.0353,-0.0394,-0.0437,-0.0471,-0.0458,-0.0491,-0.0521,-0.0568,-0.0597,-0.0633,-0.0689,-0.0734,-0.0754,-0.0799,-0.0829,-0.0826,-0.084,-0.0839,-0.0844,-0.0753,-0.0738,-0.0842,-0.0842,-0.0842,-0.0842,-0.0842,-0.0842,-0.0398,-0.046,-0.0466,-0.0539,-0.0557,-0.0608,-0.0628,-0.0655,-0.0678,-0.0741,-0.0778,-0.079,-0.0816,-0.0862,-0.0903,-0.0908,-0.0925,-0.0943,-0.0946,-0.0861,-0.085,-0.0839,-0.0826,-0.0946,-0.0946,-0.1033,-0.1034,-0.1035]},{"header":{"parameterUnit":"m.s-1","parameterCategory":1,"la1":30.2991,"la2":30.254,"lo1":-89.0895,"lo2":-89.0444,"dy":0.0017,"dx":0.0017,"nx":28,"ny":28,"refTime":"2025-08-02T09:00:00:Z","depth":0,"parameterNumber":3,"parameterNumberName":"V-component_of_WINDS"},"data":[0,0,0,0,0,0,0,0,0,0,0,0,0,0,0,0,0,0,0,0,0,0,0,0,0,0,0,0,0,0,0,0,0,0,0,0,0,0,0,0,0,0,0,0,0,0,0,0,0,0,0,0,0,0,0,0,0,0,-2.183,-2.1831,0,-2.1886,-2.1887,-2.1887,-2.1874,-2.1873,-2.1872,-2.1871,-2.1924,-2.1927,-2.1929,0,0,0,0,0,0,0,0,0,0,0,0,0,-2.1709,-2.1711,-2.183,-2.1831,-2.1832,-2.1886,-2.1887,-2.1887,-2.1874,-2.1873,-2.1871,-2.187,-2.1924,-2.1927,-2.1929,0,0,0,0,0,0,0,0,0,0,0,0,0,-2.1763,-2.1712,-2.183,-2.1832,-2.1832,-2.1886,-2.1887,-2.1888,-2.1874,-2.1873,-2.1871,-2.1869,-2.1923,-2.1926,-2.193,-2.1984,0,0,-2.1941,-2.1943,0,0,0,0,0,0,0,0,-2.176,-2.1767,-2.1831,-2.1832,-2.1833,-2.1871,-2.1864,-2.192,-2.1875,-2.1858,-2.187,-2.1869,-2.1908,-2.1913,-2.1926,-2.1987,-2.1989,-2.1941,-2.1944,-2.1945,-2.1946,0,0,0,0,0,0,0,-2.1756,-2.1765,-2.1852,-2.1832,-2.1833,-2.1828,-2.1834,-2.1874,-2.1891,-2.1859,-2.1859,-2.1866,-2.1908,-2.1923,-2.1928,-2.199,-2.1941,-2.1944,-2.1947,-2.1948,-2.2096,-2.2097,0,0,0,0,0,0,-2.1752,-2.1762,-2.1851,-2.1854,-2.1792,-2.1832,-2.1838,-2.186,-2.1891,-2.1894,-2.1867,-2.1865,-2.1918,-2.1923,-2.1929,-2.1994,-2.1945,-2.1949,-2.1951,-2.2094,-2.2096,-2.2098,0,0,0,0,0,0,-2.1749,-2.176,-2.1848,-2.1808,-2.1819,-2.1836,-2.186,-2.1862,-2.1877,-2.1896,-2.1899,-2.1879,-2.1917,-2.1924,-2.1971,-2.1996,-2.195,-2.1953,-2.2092,-2.2095,-2.2097,-2.2124,0,0,0,0,0,0,-2.1746,-2.1759,-2.1781,-2.1808,-2.1821,-2.189,-2.1862,-2.1865,-2.1884,-2.1882,-2.1909,-2.1912,-2.1916,-2.1965,-2.1974,-2.2,-2.1956,-2.209,-2.2093,-2.2096,-2.2121,-2.2127,-2.2132,0,0,0,0,0,-2.1742,-2.1786,-2.1782,-2.1793,-2.1849,-2.1891,-2.1898,-2.1903,-2.1886,-2.1907,-2.1919,-2.1911,-2.1992,-2.197,-2.198,-2.2007,-2.2088,-2.2092,-2.2096,-2.2118,-2.2126,-2.2132,0,0,0,0,0,0,-2.1761,-2.179,-2.1786,-2.1841,-2.1864,-2.1889,-2.1916,-2.1911,-2.1939,-2.1935,-2.1939,-2.1945,-2.1992,-2.2004,-2.198,-2.206,-2.2037,-2.2043,-2.2051,-2.2058,-2.2064,-2.2059,-2.1959,0,0,0,0,0,-2.1772,-2.1805,-2.1828,-2.1874,-2.1886,-2.1899,-2.1918,-2.192,-2.1943,-2.1952,-2.1968,-2.199,-2.202,-2.204,-2.2069,-2.2123,-2.2127,-2.2146,-2.2152,-2.2156,-2.2161,-2.2189,-2.2197,-2.2111,-2.2111,-2.2111,0,0,-2.1794,-2.1814,-2.1835,-2.1879,-2.1897,-2.1929,-2.1907,-2.1944,-2.1967,-2.1958,-2.2002,-2.2014,-2.2039,-2.2089,-2.2111,-2.21,-2.2186,-2.2161,-2.2165,-2.2167,-2.2193,-2.2201,-2.2209,-2.2113,-2.2113,-2.2112,0,0,-2.1852,-2.1871,-2.1911,-2.1929,-2.1956,-2.1965,-2.1974,-2.2,-2.2008,-2.2052,-2.2045,-2.2073,-2.2126,-2.2143,-2.2159,-2.2221,-2.2214,-2.2231,-2.226,-2.2287,-2.2294,-2.23,-2.232,-2.2328,-2.2236,-2.2236,-2.2236,0,-2.1876,-2.1926,-2.1931,-2.1968,-2.1986,-2.198,-2.2019,-2.2036,-2.2071,-2.2084,-2.2071,-2.2136,-2.2152,-2.2205,-2.222,-2.2234,-2.2243,-2.2227,-2.2293,-2.2299,-2.2304,-2.2324,-2.2332,-2.2237,-2.2237,-2.2237,-2.2237,0,-2.1953,-2.1988,-2.2017,-2.2051,-2.2073,-2.2111,-2.2121,-2.2142,-2.2141,-2.215,-2.2195,-2.2214,-2.2246,-2.2259,-2.2259,-2.2311,-2.2303,-2.2292,-2.2268,-2.2314,-2.2332,-2.234,-2.224,-2.2239,-2.2239,-2.2238,0,0,-2.2025,-2.2061,-2.2071,-2.2086,-2.2116,-2.2142,-2.2178,-2.221,-2.2228,-2.2252,-2.2281,-2.2325,-2.2314,-2.2332,-2.2334,-2.2357,-2.2403,-2.2342,-2.2343,-2.2352,-2.246,-2.2468,-2.2476,-2.2399,-2.24,-2.2401,-2.2457,0,-2.2084,-2.2149,-2.2154,-2.2212,-2.2243,-2.2237,-2.2268,-2.2289,-2.2298,-2.2324,-2.2334,-2.2365,-2.2349,-2.2359,-2.2382,-2.2393,-2.2425,-2.2389,-2.2424,-2.2426,-2.2417,-2.2486,-2.2495,-2.2547,-2.2465,-2.2466,-2.2467,0,-2.2161,-2.2188,-2.2249,-2.2273,-2.2286,-2.2314,-2.2343,-2.2369,-2.2391,-2.2396,-2.2416,-2.2414,-2.2449,-2.2425,-2.2473,-2.2449,-2.2464,-2.2471,-2.2473,-2.2475,-2.2448,-2.2489,-2.2564,-2.2571,-2.2479,-2.2478,-2.2477,0,-2.2205,-2.2256,-2.2299,-2.2312,-2.2341,-2.2361,-2.2374,-2.2395,-2.2413,-2.2437,-2.2449,-2.2477,-2.2492,-2.2514,-2.2519,-2.2501,-2.2566,-2.2543,-2.257,-2.2569,-2.2583,-2.2582,-2.2659,-2.2595,-2.2594,-2.2594,-2.2594,0,-2.227,-2.2307,-2.2319,-2.2346,-2.2387,-2.2391,-2.2431,-2.2443,-2.2461,-2.2488,-2.2484,-2.2509,-2.2515,-2.2541,-2.2545,-2.2583,-2.259,-2.2594,-2.2594,-2.2594,-2.2593,-2.2603,-2.2599,-2.2596,-2.2596,-2.2596,-2.2595,0,-2.2325,-2.2335,-2.2381,-2.2405,-2.2411,-2.244,-2.2459,-2.2484,-2.2492,-2.2526,-2.2535,-2.2547,-2.2577,-2.2585,-2.2621,-2.2623,-2.2668,-2.2665,-2.266,-2.266,-2.2685,-2.2682,-2.2771,-2.2782,-2.2711,-2.2712,-2.2712,0,-2.2365,-2.2394,-2.242,-2.2438,-2.2452,-2.2482,-2.25,-2.2505,-2.2524,-2.2551,-2.2572,-2.2602,-2.2626,-2.2674,-2.2685,-2.2712,-2.2709,-2.2738,-2.2713,-2.2711,-2.2708,-2.2706,-2.2708,-2.2743,-2.2744,-2.2744,-2.2745,0,-2.2435,-2.2438,-2.2465,-2.2494,-2.2516,-2.2539,-2.256,-2.2575,-2.2583,-2.2605,-2.2636,-2.2654,-2.2691,-2.2719,-2.2746,-2.2758,-2.2752,-2.2753,-2.276,-2.2759,-2.2754,-2.2755,-2.2672,-2.275,-2.275,-2.2749,-2.2749,-2.2749,-2.2483,-2.2507,-2.2529,-2.2559,-2.2576,-2.2596,-2.2619,-2.263,-2.2657,-2.2687,-2.2688,-2.2721,-2.2741,-2.2777,-2.279,-2.2815,-2.2806,-2.2817,-2.2819,-2.2821,-2.2823,-2.2751,-2.282,-2.282,-2.2819,-2.2819,-2.2819,0,-2.2551,-2.2564,-2.2592,-2.2622,-2.2645,-2.2639,-2.2662,-2.2681,-2.2711,-2.273,-2.2753,-2.2788,-2.2816,-2.2829,-2.2856,-2.2873,-2.2871,-2.288,-2.2878,-2.288,-2.283,-2.2821,-2.2881,-2.2881,-2.2881,-2.2881,-2.2881,-2.2881,-2.2588,-2.2629,-2.2634,-2.2682,-2.2695,-2.2728,-2.2742,-2.2759,-2.2774,-2.2813,-2.2837,-2.2845,-2.2862,-2.289,-2.2914,-2.2917,-2.2926,-2.2936,-2.2938,-2.2891,-2.2884,-2.2878,-2.2869,-2.2939,-2.2939,-2.2986,-2.2986,-2.2986]}]]